GW7323 Weather Reports


time (UTC)temp
F
wind
direction
speed
knots
gust
knots
rain 1hr
in
rain 24hr
in
rain mn
in
humidity
%
barometer
mb
20260503203510 61 287 13.0 20.0 0.00 0.00 0.00 48 1011.6
20260503203029 61 289 13.9 22.6 0.00 0.00 0.00 48 1011.6
20260503202514 61 287 11.3 22.6 0.00 0.00 0.00 48 1011.8
20260503202013 61 320 13.9 19.1 0.00 0.00 0.00 47 1011.8
20260503201531 61 298 13.0 19.1 0.00 0.00 0.00 47 1011.9
20260503201011 61 308 10.4 19.1 0.00 0.00 0.00 47 1011.8
20260503200514 62 269 8.7 19.1 0.00 0.00 0.00 47 1012.0
20260503200033 62 304 7.8 19.1 0.00 0.00 0.00 47 1012.1
20260503195508 62 305 9.6 17.4 0.00 0.00 0.00 45 1012.4
20260503195012 62 283 8.7 19.1 0.00 0.00 0.00 44 1012.5
20260503194527 62 304 11.3 19.1 0.00 0.00 0.00 44 1012.5
20260503194007 62 293 9.6 20.0 0.00 0.00 0.00 46 1012.5
20260503193507 62 252 10.4 20.0 0.00 0.00 0.00 45 1012.7
20260503193026 62 317 9.6 18.2 0.00 0.00 0.00 45 1012.7
20260503192510 61 321 13.0 19.1 0.00 0.00 0.00 44 1012.7
20260503192013 61 296 11.3 19.1 0.00 0.00 0.00 45 1013.1
20260503191528 61 323 6.1 13.0 0.00 0.00 0.00 48 1013.2
20260503191009 60 354 7.0 17.4 0.00 0.00 0.00 48 1013.4
20260503190512 59 307 8.7 17.4 0.00 0.00 0.00 50 1013.7
20260503190028 59 288 8.7 14.8 0.00 0.00 0.00 52 1013.8
20260503185510 59 302 9.6 14.8 0.00 0.00 0.00 53 1013.9
20260503185006 59 307 8.7 15.6 0.00 0.00 0.00 52 1014.0
20260503184522 59 290 10.4 15.6 0.00 0.00 0.00 50 1014.0
20260503184010 59 318 7.8 12.2 0.00 0.00 0.00 50 1014.1
20260503183520 58 298 6.1 20.9 0.00 0.00 0.00 49 1014.6
20260503183033 58 316 10.4 20.9 0.00 0.00 0.00 49 1014.7
20260503182507 59 277 9.6 20.9 0.00 0.00 0.00 50 1014.7
20260503182012 59 300 6.1 13.0 0.00 0.00 0.00 49 1014.5
20260503181542 59 311 7.8 13.0 0.00 0.00 0.00 50 1014.5
20260503181010 59 326 7.8 13.9 0.00 0.00 0.00 52 1014.5
20260503180504 59 269 8.7 15.6 0.00 0.00 0.00 51 1014.4
20260503180012 58 297 7.8 15.6 0.00 0.00 0.00 52 1014.5
20260503175503 58 277 7.8 16.5 0.00 0.00 0.00 52 1014.5
20260503175009 58 283 10.4 16.5 0.00 0.00 0.00 52 1014.6
20260503174519 58 304 8.7 13.9 0.00 0.00 0.00 53 1014.7
20260503174006 57 304 5.2 11.3 0.00 0.00 0.00 54 1015.0
20260503173506 57 286 7.8 11.3 0.00 0.00 0.00 54 1015.2
20260503173039 57 315 6.1 11.3 0.00 0.00 0.00 55 1015.4
20260503172506 57 284 5.2 11.3 0.00 0.00 0.00 55 1015.7
20260503172013 56 318 6.1 11.3 0.00 0.00 0.00 55 1015.7
20260503171523 56 330 4.3 18.2 0.00 0.00 0.00 55 1015.8
20260503171008 56 338 8.7 18.2 0.00 0.00 0.00 52 1015.9
20260503170513 57 3 6.1 14.8 0.00 0.00 0.00 54 1016.2
20260503151008 56 337 7.0 17.4 0.00 0.00 0.00 54 1017.1
20260503150514 56 290 7.8 17.4 0.00 0.00 0.00 55 1017.1
20260503131007 50 325 7.0 10.4 0.00 0.00 0.00 56 1017.8
20260503130508 50 311 7.8 11.3 0.00 0.00 0.00 56 1017.7
20260503110502 43 312 1.7 4.3 0.00 0.00 0.00 69 1017.3
20260503090511 41 335 3.5 5.2 0.00 0.00 0.00 72 1017.3
20260503081519 42 299 2.6 5.2 0.00 0.00 0.00 73 1017.3
20260503081008 42 329 3.5 5.2 0.00 0.00 0.00 73 1017.3
20260503080511 42 317 2.6 6.1 0.00 0.00 0.00 74 1017.3
20260503072507 41 319 1.7 3.5 0.00 0.00 0.00 76 1017.4
20260503072007 41 311 2.6 3.5 0.00 0.00 0.00 76 1017.5
20260503071519 41 308 2.6 3.5 0.00 0.00 0.00 76 1017.5
20260503071007 41 310 2.6 3.5 0.00 0.00 0.00 76 1017.5
20260503070506 41 317 2.6 3.5 0.00 0.00 0.00 76 1017.5
20260503055009 42 319 2.6 2.6 0.00 0.00 0.00 77 1017.9
20260503054523 42 333 1.7 2.6 0.00 0.00 0.00 77 1018.0
20260503054011 42 40 1.7 2.6 0.00 0.00 0.00 78 1018.0
20260503053510 42 59 0.9 1.7 0.00 0.00 0.00 78 1018.0
20260503053036 42 344 1.7 1.7 0.00 0.00 0.00 78 1018.1
20260503052512 42 335 1.7 1.7 0.00 0.00 0.00 77 1018.1
20260503052003 42 41 0.9 1.7 0.00 0.00 0.00 77 1018.1
20260503051510 42 60 0.9 1.7 0.00 0.00 0.00 77 1018.1
20260503051008 42 62 0.9 1.7 0.00 0.00 0.00 76 1018.1
20260503050506 42 62 1.7 2.6 0.00 0.00 0.00 75 1018.2
20260503050014 42 352 1.7 2.6 0.00 0.00 0.00 76 1018.2
20260503045507 42 41 0.9 2.6 0.00 0.00 0.00 75 1018.2
20260503045007 42 42 1.7 2.6 0.00 0.00 0.00 75 1018.3
20260503044551 42 50 0.9 1.7 0.00 0.00 0.00 75 1018.1
20260503044006 43 34 1.7 1.7 0.00 0.00 0.00 74 1018.1
20260503043507 43 35 1.7 1.7 0.00 0.00 0.00 74 1018.1
20260503043025 43 36 0.9 1.7 0.00 0.00 0.00 74 1018.2
20260503042507 43 18 0.9 2.6 0.00 0.00 0.00 74 1018.2
20260503042015 43 11 1.7 2.6 0.00 0.00 0.00 74 1018.2
20260503041527 43 352 1.7 2.6 0.00 0.00 0.00 74 1018.2
20260503041005 43 352 0.9 1.7 0.00 0.00 0.00 72 1018.2
20260503040508 43 359 1.7 2.6 0.00 0.00 0.00 71 1018.2
20260503040014 43 20 1.7 2.6 0.00 0.00 0.00 69 1018.2
20260503035504 44 351 1.7 1.7 0.00 0.00 0.00 71 1018.2
20260503035006 44 59 0.9 1.7 0.00 0.00 0.00 72 1018.2
20260503034514 44 65 0.9 1.7 0.00 0.00 0.00 71 1018.2
20260503034007 44 69 0.9 1.7 0.00 0.00 0.00 70 1018.2
20260503033508 44 49 0.9 1.7 0.00 0.00 0.00 69 1018.3
20260503033018 44 49 0.9 1.7 0.00 0.00 0.00 67 1018.3
20260503032508 44 49 0.9 1.7 0.00 0.00 0.00 67 1018.3
20260503032017 44 49 0.9 1.7 0.00 0.00 0.00 72 1018.2
20260503031524 44 49 0.9 1.7 0.00 0.00 0.00 72 1018.2
20260503031008 45 49 0.9 1.7 0.00 0.00 0.00 72 1018.2
20260503030511 45 49 0.9 1.7 0.00 0.00 0.00 72 1018.3
20260503030006 45 53 0.9 1.7 0.00 0.00 0.00 72 1018.2
20260503025509 45 53 0.9 1.7 0.00 0.00 0.00 71 1018.3
20260503025004 45 78 0.0 1.7 0.00 0.00 0.00 71 1018.2
20260503024514 46 77 0.0 0.9 0.00 0.00 0.00 72 1018.3
20260503024011 46 77 0.9 0.9 0.00 0.00 0.00 71 1018.2
20260503023506 46 78 0.0 0.9 0.00 0.00 0.00 70 1018.3
20260503023014 47 78 0.0 0.9 0.00 0.00 0.00 71 1018.3
20260503022507 47 78 0.0 0.9 0.00 0.00 0.00 70 1018.2
20260503022013 47 77 0.0 0.9 0.00 0.00 0.00 67 1018.2
20260503021523 47 64 0.0 1.7 0.00 0.00 0.00 66 1018.1
20260503021016 47 49 0.9 1.7 0.00 0.00 0.00 68 1018.1
20260503020512 48 78 0.9 1.7 0.00 0.00 0.00 66 1018.2
20260503020034 48 115 0.0 0.9 0.00 0.00 0.00 64 1018.1
20260503015512 48 115 0.0 1.7 0.00 0.00 0.00 65 1018.1
20260503015005 48 108 0.0 2.6 0.00 0.00 0.00 68 1018.0
20260503014507 48 68 0.9 2.6 0.00 0.00 0.00 65 1018.0
20260503014003 49 103 0.0 0.9 0.00 0.00 0.00 63 1017.9
20260503013503 49 126 0.0 0.9 0.00 0.00 0.00 61 1017.9
20260503013011 49 126 0.0 0.9 0.00 0.00 0.00 61 1017.8
20260503012507 50 126 0.0 0.9 0.00 0.00 0.00 59 1017.8
20260503012015 50 126 0.0 0.9 0.00 0.00 0.00 54 1017.8
20260503011519 50 126 0.0 0.9 0.00 0.00 0.00 49 1017.7
20260503011007 50 127 0.0 0.9 0.00 0.00 0.00 49 1017.8
20260503010510 51 127 0.0 0.9 0.00 0.00 0.00 50 1017.7
20260503010022 51 140 0.0 0.9 0.00 0.00 0.00 43 1017.7
20260503005507 51 141 0.0 0.9 0.00 0.00 0.00 41 1017.7
20260503005013 52 141 0.0 2.6 0.00 0.00 0.00 42 1017.7
20260503004504 52 139 0.0 2.6 0.00 0.00 0.00 40 1017.7
20260503004002 52 130 0.9 2.6 0.00 0.00 0.00 41 1017.7
20260503003506 52 117 0.9 2.6 0.00 0.00 0.00 39 1017.7
20260503003010 53 104 0.0 2.6 0.00 0.00 0.00 39 1017.7
20260503002503 53 127 0.0 2.6 0.00 0.00 0.00 37 1017.7
20260503002007 53 110 0.9 2.6 0.00 0.00 0.00 38 1017.7
20260503001514 53 58 1.7 2.6 0.00 0.00 0.00 38 1017.7
20260503001005 54 111 0.9 1.7 0.00 0.00 0.00 37 1017.7
20260503000506 54 110 0.9 1.7 0.00 0.00 0.00 36 1017.6
20260503000028 54 153 0.9 3.5 0.00 0.00 0.00 36 1017.6
20260502235507 54 118 1.7 3.5 0.00 0.00 0.00 36 1017.6
20260502235010 54 148 0.9 4.3 0.00 0.00 0.00 36 1017.6
20260502234547 54 106 1.7 4.3 0.00 0.00 0.00 36 1017.7
20260502234011 54 105 2.6 6.1 0.00 0.00 0.00 36 1017.7
20260502233503 54 118 2.6 7.0 0.00 0.00 0.00 36 1017.7
20260502233007 54 112 2.6 7.0 0.00 0.00 0.00 37 1017.8
20260502232504 54 108 2.6 6.1 0.00 0.00 0.00 37 1017.7
20260502232005 54 31 3.5 7.0 0.00 0.00 0.00 35 1017.8
20260502231510 55 149 0.9 7.0 0.00 0.00 0.00 35 1017.8
20260502231005 55 125 2.6 7.8 0.00 0.00 0.00 35 1017.8
20260502230506 55 80 0.9 7.8 0.00 0.00 0.00 34 1017.8
20260502230029 55 47 4.3 7.0 0.00 0.00 0.00 36 1017.8
20260502225508 55 108 1.7 7.8 0.00 0.00 0.00 36 1017.8
20260502225008 54 76 3.5 9.6 0.00 0.00 0.00 36 1017.9
20260502224521 54 22 7.0 10.4 0.00 0.00 0.00 35 1017.9
20260502224017 54 34 4.3 13.0 0.00 0.00 0.00 35 1017.9
20260502223511 54 358 7.0 13.0 0.00 0.00 0.00 35 1017.9
20260502223036 54 355 5.2 8.7 0.00 0.00 0.00 36 1017.9
20260502222503 54 37 5.2 11.3 0.00 0.00 0.00 35 1017.9
20260502222004 55 20 3.5 11.3 0.00 0.00 0.00 35 1017.9
20260502221507 55 44 7.0 11.3 0.00 0.00 0.00 34 1017.9
20260502221005 55 120 3.5 8.7 0.00 0.00 0.00 35 1017.9
20260502220507 55 86 3.5 8.7 0.00 0.00 0.00 34 1017.9
20260502220014 56 19 2.6 5.2 0.00 0.00 0.00 34 1017.9
20260502215505 55 118 0.0 8.7 0.00 0.00 0.00 35 1018.0
20260502215008 54 63 3.5 9.6 0.00 0.00 0.00 36 1018.1
20260502214520 54 339 6.1 9.6 0.00 0.00 0.00 35 1018.1
20260502214011 54 358 3.5 11.3 0.00 0.00 0.00 35 1018.0
20260502213511 53 150 4.3 11.3 0.00 0.00 0.00 36 1018.0
20260502213024 53 72 3.5 9.6 0.00 0.00 0.00 37 1018.0
20260502212507 53 105 3.5 9.6 0.00 0.00 0.00 37 1017.9
20260502212013 53 348 1.7 9.6 0.00 0.00 0.00 37 1018.0
20260502211506 53 136 3.5 9.6 0.00 0.00 0.00 37 1018.1
20260502211003 53 29 2.6 11.3 0.00 0.00 0.00 38 1018.1
20260502210504 53 32 3.5 11.3 0.00 0.00 0.00 35 1018.1
20260502210009 53 102 4.3 11.3 0.00 0.00 0.00 36 1018.2
20260502205508 53 32 7.8 11.3 0.00 0.00 0.00 37 1018.2
20260502205005 52 32 5.2 13.0 0.00 0.00 0.00 38 1018.2
20260502204521 52 31 4.3 13.0 0.00 0.00 0.00 37 1018.4
20260502204006 53 53 5.2 8.7 0.00 0.00 0.00 38 1018.3